{"data":{"norad_id":56056,"intl_designator":"2023-043L","name":"ONEWEB-0554","alt_names":[],"object_type":"PAYLOAD","status":"ACTIVE","operator":null,"country":"UK","launch_date":"2023-03-26","launch_site_code":"SRILR","launch_vehicle":null,"mission":null,"orbit_class":"UNKNOWN","rcs_meters":null,"size_class":null,"mass_kg":null,"dimensions":null,"purposes":["comms"],"wikipedia_slug":null,"has_3d_model":false,"image_url":null,"decayed_at":null,"tle_current":{"epoch":"2026-05-25T05:14:10.950720Z","epoch_age_seconds":46333,"freshness":"FRESH","line1":"1 56056U 23043L   26145.21818230  .00000069  00000+0  14739-3 0  9998","line2":"2 56056  87.9103 233.3438 0002270  96.2083 263.9306 13.16593407155938","mean_motion":13.16593407,"eccentricity":0.000227,"inclination_deg":87.9103,"raan_deg":233.3438,"arg_perigee_deg":96.2083,"mean_anomaly_deg":263.9306,"bstar":0.00014739,"rev_number":15593,"period_min":109.37317415869,"perigee_km":1196.0401991835,"apogee_km":1199.4796563888,"semimajor_km":7575.8969277861,"source":"CELESTRAK","updated_at":"2026-05-25T13:38:22.701911Z"}}}